Regional Weather Roundup
Issued by NWS State College, PA

Home | Current Version | Previous Version | Text Only | Print | Product List | Glossary Off
Versions: 1 2 3 4 5 6 7 8 9 10 11 12 13 14 15 16 17 18 19 20 21 22 23 24 25 26 27 28 29 30 31 32 33 34 35 36 37 38 39 40 41 42 43 44 45 46 47 48 49 50

000
ASUS41 KCTP 250603
RWRCTP

REGIONAL WEATHER ROUNDUP
NATIONAL WEATHER SERVICE STATE COLLEGE PA
200 AM EDT MON JUL 25 2016

Note: "fair" indicates few or no clouds below 12,000 feet with no
significant weather and/or obstructions to visibility.

* = STATION THAT DOES NOT REPORT PRECIPITATION /E.G. RAIN...SNOW...ETC/
    THUNDER OR FOG.

PAZ002>004-007>009-013>016-020>023-029>032-250700-
WESTERN PENNSYLVANIA

CITY           SKY/WX    TMP DP  RH WIND       PRES   REMARKS
ERIE           CLEAR     76  70  82 S13       29.93S
MEADVILLE      CLEAR     70  68  93 VRB3      30.00R
FRANKLIN*      MOCLDY    70  66  88 S6        30.03S
NEW CASTLE     FAIR      72  71  97 CALM      30.00S
BEAVER COUNTY  NOT AVBL
BUTLER*        CLEAR     70  68  94 CALM      30.03S
PITTSBURGH INT PTCLDY    72  70  93 CALM      30.00F
PITTSBURGH     CLEAR     71  69  93 S7        30.00S FOG
INDIANA*       MOCLDY    70  70 100 CALM      30.04F
LATROBE        CLEAR     68  68 100 CALM      30.01F FOG
WASHINGTON CO* CLEAR     70  66  88 CALM      30.01F
$$

PAZ004>006-010>012-017>019-024>028-033>037-041-042-045-046-049>053-250700-
CENTRAL PENNSYLVANIA

CITY           SKY/WX    TMP DP  RH WIND       PRES   REMARKS
BRADFORD       FOG       67  66  97 CALM      30.03F VSB 1/2
DUBOIS         FOG       70  68  93 CALM      30.03S VSB 1/4
CLEARFIELD     CLOUDY    70  68  93 CALM      30.02F FOG
JOHNSTOWN      PTCLDY    70  65  84 SW8       30.06F
ALTOONA        CLOUDY    71  68  90 CALM      30.03F FOG
STATE COLLEGE  CLOUDY    69  68  96 SW6       30.00F
WILLIAMSPORT   PTCLDY    76  68  76 W7        29.95S
SELINSGROVE    PTCLDY    73  73 100 CALM      29.97F
FT INDIANTOWN  CLOUDY    77  70  79 VRB3      29.96F
CAPITAL CITY   LGT RAIN  76  72  87 W7        29.98R FOG
HARRISBURG     RAIN      77  74  90 W9        29.96F
YORK           LGT RAIN  76  72  87 W8        29.97F
$$

PAZ038>040-043-044-047-048-054-055-060>062-067>071-250700-
EASTERN PENNSYLVANIA

CITY           SKY/WX    TMP DP  RH WIND       PRES   REMARKS
SCRANTON       MOCLDY    77  67  71 CALM      29.96F
MOUNT POCONO   CLOUDY    74  64  71 W8        30.02F
ALLENTOWN      MOCLDY    82  66  58 SW6       29.95F
QUAKERTOWN*    CLOUDY    81  68  65 CALM      29.97F
READING        CLOUDY    80  67  64 CALM      29.94F
LANCASTER      CLOUDY    74  73  97 SE5       29.95F
COATESVILLE    CLOUDY    77  70  78 CALM      29.99F
POTTSTOWN      CLOUDY    79  68  69 CALM      29.97F
BLUE BELL      CLOUDY    77  64  65 CALM      29.95F
DOYLESTOWN     LGT RAIN  78  61  55 VRB5      29.95F
WILLOW GROVE   NOT AVBL
NORTH PHILA    CLOUDY    81  66  60 SW5       29.97F
PHILADELPHIA   CLOUDY    82  68  62 S5        29.96F
$$




USA.gov is the U.S. government's official web portal to all federal, state and local government web resources and services.